[[{"header":{"parameterUnit":"m.s-1","parameterCategory":1,"la1":30.2991,"la2":30.254,"lo1":-89.0895,"lo2":-89.0444,"dy":0.0017,"dx":0.0017,"nx":28,"ny":28,"refTime":"2025-07-19T09:00:00:Z","depth":0,"parameterNumber":2,"parameterNumberName":"U-component_of_WINDS"},"data":[0,0,0,0,0,0,0,0,0,0,0,0,0,0,0,0,0,0,0,0,0,0,0,0,0,0,0,0,0,0,0,0,0,0,0,0,0,0,0,0,0,0,0,0,0,0,0,0,0,0,0,0,0,0,0,0,0,0,2.1042,2.1043,0,2.117,2.1171,2.1173,2.1186,2.1185,2.1184,2.1182,2.1315,2.132,2.1324,0,0,0,0,0,0,0,0,0,0,0,0,0,2.0809,2.0813,2.1041,2.1043,2.1045,2.1169,2.1171,2.1173,2.1186,2.1185,2.1183,2.1182,2.1314,2.1319,2.1325,0,0,0,0,0,0,0,0,0,0,0,0,0,2.0921,2.0815,2.1041,2.1066,2.107,2.1169,2.1171,2.1173,2.1187,2.1185,2.1183,2.1181,2.1312,2.1319,2.1326,2.1409,0,0,2.1347,2.135,0,0,0,0,0,0,0,0,2.0915,2.0929,2.1061,2.1065,2.1069,2.116,2.1138,2.1252,2.1187,2.1143,2.1182,2.118,2.1265,2.1276,2.1304,2.1415,2.1421,2.1348,2.1352,2.1355,2.1357,0,0,0,0,0,0,0,2.0907,2.0924,2.1092,2.1063,2.1068,2.1072,2.1085,2.116,2.1213,2.1146,2.1148,2.1162,2.1267,2.1297,2.1308,2.1423,2.1348,2.1354,2.1359,2.1361,2.1606,2.1608,0,0,0,0,0,0,2.0894,2.0917,2.1088,2.1096,2.0985,2.1077,2.1093,2.1133,2.1213,2.1223,2.1164,2.1163,2.1286,2.1299,2.1312,2.1413,2.1355,2.1362,2.1366,2.1604,2.1607,2.1609,0,0,0,0,0,0,2.0889,2.0909,2.1083,2.1007,2.103,2.1083,2.1128,2.1136,2.1167,2.1226,2.1236,2.1185,2.1285,2.1302,2.1384,2.1418,2.1365,2.1372,2.1602,2.1605,2.1608,2.1617,0,0,0,0,0,0,2.0882,2.0907,2.0939,2.1008,2.1034,2.1153,2.1131,2.114,2.1179,2.1178,2.1248,2.1258,2.1285,2.1373,2.1391,2.1427,2.1377,2.1599,2.1603,2.1607,2.1614,2.162,2.1626,0,0,0,0,0,2.0874,2.0938,2.0941,2.0962,2.1075,2.1155,2.1169,2.1198,2.1182,2.1214,2.1252,2.1256,2.1412,2.1382,2.1402,2.144,2.1597,2.1602,2.1607,2.1611,2.1619,2.1625,0,0,0,0,0,0,2.0873,2.0947,2.0952,2.1039,2.109,2.1157,2.1199,2.1206,2.1263,2.126,2.1295,2.131,2.1391,2.1424,2.1389,2.1524,2.1503,2.1512,2.1499,2.1507,2.1513,2.1502,2.1383,0,0,0,0,0,2.0882,2.0941,2.1003,2.1074,2.1099,2.1144,2.118,2.1198,2.1253,2.1275,2.1319,2.1372,2.1433,2.1472,2.1531,2.1619,2.1634,2.1656,2.1661,2.1666,2.1673,2.172,2.173,2.1626,2.1626,2.1626,0,0,2.0903,2.0951,2.0986,2.1075,2.1117,2.1176,2.1163,2.1227,2.1271,2.1285,2.1364,2.1398,2.146,2.1544,2.1584,2.1575,2.1705,2.1672,2.1676,2.168,2.1726,2.1736,2.1745,2.1629,2.1629,2.1628,0,0,2.0971,2.1014,2.1077,2.1119,2.1182,2.1211,2.1226,2.1292,2.1314,2.1395,2.1406,2.1459,2.1564,2.1607,2.1642,2.1725,2.173,2.1744,2.1774,2.182,2.1828,2.1835,2.1863,2.1873,2.1751,2.1751,2.1751,0,2.0989,2.1079,2.1108,2.1171,2.1209,2.1224,2.1288,2.1328,2.1407,2.1433,2.1422,2.1552,2.1595,2.1688,2.1708,2.1738,2.1755,2.1735,2.1824,2.1832,2.1839,2.1866,2.1877,2.1752,2.1752,2.1752,2.1752,0,2.1097,2.1159,2.1202,2.1277,2.132,2.1384,2.1423,2.1463,2.1477,2.1508,2.1589,2.164,2.171,2.1734,2.1749,2.183,2.1822,2.1817,2.1796,2.185,2.1875,2.1886,2.1754,2.1753,2.1753,2.1753,0,0,2.1166,2.1256,2.1272,2.1305,2.1376,2.1424,2.1488,2.1555,2.1588,2.1643,2.1696,2.1784,2.1779,2.1819,2.184,2.188,2.194,2.187,2.1872,2.1879,2.203,2.2032,2.2043,2.1945,2.1947,2.1948,2.2024,0,2.1241,2.1353,2.1382,2.1478,2.1534,2.1549,2.1604,2.1654,2.1684,2.1737,2.1771,2.1831,2.1822,2.1846,2.1887,2.1924,2.197,2.1919,2.1994,2.1996,2.1976,2.2057,2.206,2.2129,2.2035,2.2037,2.2038,0,2.1342,2.1397,2.1498,2.156,2.1585,2.1634,2.1697,2.1748,2.1803,2.1823,2.1867,2.1883,2.1949,2.1926,2.2017,2.1981,2.2014,2.2037,2.204,2.2047,2.2019,2.2064,2.2152,2.2161,2.2054,2.2053,2.2052,0,2.138,2.148,2.1553,2.1582,2.1656,2.169,2.1722,2.1776,2.1814,2.187,2.1894,2.1957,2.1991,2.204,2.2072,2.2052,2.216,2.2139,2.2177,2.2176,2.2198,2.2195,2.2289,2.2222,2.2222,2.2221,2.2221,0,2.1459,2.152,2.1571,2.1616,2.1684,2.1716,2.1783,2.1817,2.1864,2.1915,2.1933,2.1981,2.2021,2.2075,2.2101,2.2171,2.2187,2.2204,2.221,2.2201,2.2199,2.2222,2.2217,2.2224,2.2224,2.2223,2.2223,0,2.1512,2.1549,2.1629,2.1693,2.171,2.1758,2.1812,2.1856,2.1887,2.1951,2.1968,2.2017,2.208,2.2118,2.2198,2.2216,2.2293,2.2298,2.2274,2.2276,2.2311,2.2306,2.2421,2.2437,2.236,2.2361,2.2362,0,2.1559,2.1606,2.1674,2.1709,2.1742,2.1799,2.1837,2.1871,2.1911,2.1977,2.2013,2.2077,2.213,2.2231,2.2273,2.2335,2.234,2.2376,2.2349,2.2339,2.2338,2.2334,2.2338,2.238,2.2381,2.2381,2.2382,0,2.1638,2.1653,2.1708,2.1769,2.1814,2.1863,2.1913,2.1941,2.1983,2.2026,2.2091,2.2132,2.2213,2.2277,2.2342,2.2375,2.2385,2.239,2.2401,2.2392,2.2375,2.2383,2.2284,2.2387,2.2386,2.2386,2.2386,2.2385,2.1688,2.173,2.1784,2.1843,2.1884,2.1929,2.1973,2.2009,2.2063,2.2131,2.2149,2.2216,2.227,2.2358,2.2393,2.2446,2.244,2.2458,2.2462,2.2465,2.2465,2.2368,2.2459,2.2459,2.2458,2.2458,2.2458,0,2.1766,2.1801,2.1856,2.1923,2.197,2.1975,2.203,2.2069,2.2128,2.2177,2.2229,2.2302,2.2363,2.2411,2.2473,2.2507,2.2513,2.2522,2.2519,2.2526,2.2467,2.245,2.2516,2.2516,2.2516,2.2516,2.2516,2.2516,2.1811,2.1881,2.1903,2.1994,2.2029,2.2094,2.2125,2.2166,2.2206,2.2287,2.2337,2.2367,2.2416,2.2482,2.2538,2.2551,2.2572,2.258,2.2593,2.2537,2.253,2.2524,2.2508,2.2585,2.2585,2.2647,2.2647,2.2648]},{"header":{"parameterUnit":"m.s-1","parameterCategory":1,"la1":30.2991,"la2":30.254,"lo1":-89.0895,"lo2":-89.0444,"dy":0.0017,"dx":0.0017,"nx":28,"ny":28,"refTime":"2025-07-19T09:00:00:Z","depth":0,"parameterNumber":3,"parameterNumberName":"V-component_of_WINDS"},"data":[0,0,0,0,0,0,0,0,0,0,0,0,0,0,0,0,0,0,0,0,0,0,0,0,0,0,0,0,0,0,0,0,0,0,0,0,0,0,0,0,0,0,0,0,0,0,0,0,0,0,0,0,0,0,0,0,0,0,0.7989,0.799,0,0.8051,0.8052,0.8052,0.8021,0.802,0.8018,0.8016,0.8081,0.8084,0.8088,0,0,0,0,0,0,0,0,0,0,0,0,0,0.7844,0.7847,0.7989,0.799,0.7991,0.8051,0.8052,0.8053,0.8022,0.802,0.8018,0.8016,0.808,0.8084,0.8088,0,0,0,0,0,0,0,0,0,0,0,0,0,0.7907,0.7848,0.7989,0.7982,0.7982,0.8051,0.8052,0.8053,0.8022,0.8019,0.8017,0.8015,0.8079,0.8084,0.8088,0.8167,0,0,0.8103,0.8105,0,0,0,0,0,0,0,0,0.7903,0.7912,0.7983,0.7983,0.7983,0.8026,0.8024,0.8091,0.8023,0.8007,0.8016,0.8014,0.8065,0.8071,0.8088,0.817,0.8173,0.8104,0.8107,0.8109,0.811,0,0,0,0,0,0,0,0.7899,0.7909,0.8014,0.7984,0.7984,0.7976,0.7983,0.8037,0.8049,0.8008,0.8006,0.8014,0.8065,0.8083,0.8089,0.8174,0.8104,0.8108,0.8111,0.8113,0.8324,0.8327,0,0,0,0,0,0,0.7895,0.7906,0.8012,0.8015,0.7936,0.7981,0.7988,0.8015,0.8048,0.8051,0.8016,0.8012,0.8076,0.8083,0.8091,0.8186,0.8109,0.8113,0.8116,0.8322,0.8325,0.8328,0,0,0,0,0,0,0.7892,0.7905,0.8009,0.796,0.7973,0.7986,0.8016,0.8017,0.8036,0.8054,0.8056,0.8033,0.8074,0.8084,0.8148,0.8188,0.8115,0.812,0.8318,0.8323,0.8326,0.8377,0,0,0,0,0,0,0.7888,0.7904,0.7934,0.7961,0.7976,0.8066,0.8019,0.802,0.8044,0.804,0.807,0.8073,0.8073,0.8141,0.8153,0.8193,0.8124,0.8315,0.832,0.8325,0.8372,0.8382,0.8391,0,0,0,0,0,0.7883,0.7946,0.7936,0.7949,0.8014,0.8068,0.8076,0.8075,0.8047,0.8078,0.8089,0.8072,0.8181,0.8148,0.8161,0.8204,0.8312,0.8319,0.8325,0.8368,0.838,0.8391,0,0,0,0,0,0,0.7924,0.795,0.7938,0.8012,0.8038,0.8063,0.8101,0.8088,0.8123,0.8118,0.8115,0.8122,0.8189,0.8202,0.8165,0.8281,0.8243,0.8252,0.8271,0.8283,0.8292,0.8289,0.8128,0,0,0,0,0,0.7942,0.7983,0.8003,0.8067,0.808,0.8088,0.8112,0.8108,0.8135,0.8146,0.8163,0.819,0.823,0.8257,0.8295,0.8373,0.8379,0.8408,0.8418,0.8425,0.8434,0.8476,0.849,0.8348,0.8348,0.8347,0,0,0.7979,0.7998,0.8024,0.8075,0.8095,0.8139,0.8098,0.8146,0.8178,0.8154,0.8216,0.8228,0.8258,0.8329,0.8362,0.8343,0.8474,0.8433,0.8439,0.8444,0.8484,0.8497,0.8509,0.8352,0.8351,0.835,0,0,0.8069,0.8087,0.8142,0.8162,0.8192,0.8197,0.821,0.8236,0.8244,0.8305,0.8288,0.8326,0.8395,0.8417,0.8438,0.8534,0.852,0.8547,0.8598,0.8639,0.865,0.866,0.8696,0.8709,0.8555,0.8555,0.8555,0,0.8112,0.8177,0.8172,0.8221,0.8244,0.8223,0.8278,0.8298,0.8339,0.8356,0.8333,0.842,0.8438,0.8515,0.8538,0.8555,0.857,0.8544,0.8649,0.8659,0.8668,0.8702,0.8715,0.8558,0.8557,0.8557,0.8557,0,0.8228,0.8273,0.8314,0.8353,0.8381,0.8433,0.8436,0.8464,0.8458,0.8465,0.8528,0.8549,0.8591,0.8608,0.8602,0.8684,0.8671,0.8649,0.861,0.8685,0.8717,0.873,0.8562,0.8561,0.856,0.856,0,0,0.8348,0.8383,0.8399,0.8416,0.8447,0.8482,0.8532,0.8573,0.8598,0.8626,0.8669,0.8727,0.8707,0.873,0.8726,0.8762,0.8838,0.8736,0.8736,0.8755,0.893,0.8948,0.8963,0.8828,0.883,0.8832,0.8928,0,0.8442,0.8531,0.8528,0.8611,0.8653,0.8632,0.8676,0.87,0.8707,0.8744,0.8752,0.8794,0.8763,0.8777,0.8811,0.8822,0.8874,0.8815,0.8869,0.8871,0.8864,0.8979,0.8999,0.9088,0.894,0.8942,0.8944,0,0.8563,0.8595,0.8683,0.8707,0.8724,0.8764,0.8801,0.8836,0.8862,0.8864,0.8889,0.8879,0.8931,0.8889,0.896,0.892,0.8941,0.895,0.8953,0.896,0.8914,0.8991,0.9117,0.9131,0.8963,0.8962,0.896,0,0.8644,0.8709,0.877,0.8785,0.8814,0.8843,0.8856,0.888,0.8904,0.8936,0.8951,0.8989,0.901,0.9039,0.9039,0.9008,0.9111,0.9069,0.9116,0.9116,0.9141,0.914,0.9273,0.9151,0.9151,0.9151,0.915,0,0.875,0.8805,0.8806,0.8844,0.8904,0.8899,0.8959,0.897,0.8991,0.903,0.9013,0.9051,0.9048,0.9085,0.9086,0.9145,0.9154,0.9158,0.9158,0.9161,0.9161,0.9177,0.9172,0.9154,0.9154,0.9153,0.9152,0,0.8852,0.8855,0.892,0.8941,0.8948,0.8992,0.901,0.9046,0.9051,0.9101,0.9112,0.9121,0.9164,0.9166,0.9216,0.9217,0.9289,0.9281,0.9281,0.928,0.9327,0.9323,0.9478,0.9498,0.9361,0.9362,0.9363,0,0.892,0.8962,0.8987,0.9012,0.9027,0.9068,0.9092,0.9088,0.9114,0.9146,0.9178,0.922,0.9253,0.9323,0.9334,0.9372,0.9366,0.9417,0.9372,0.9373,0.9368,0.9367,0.9371,0.9427,0.9428,0.943,0.9431,0,0.9042,0.9041,0.9077,0.9113,0.9143,0.9171,0.9198,0.9219,0.9218,0.9248,0.9292,0.9318,0.9368,0.941,0.9447,0.946,0.9446,0.9444,0.9457,0.9462,0.9461,0.9464,0.9307,0.9442,0.944,0.944,0.9439,0.9439,0.913,0.9166,0.919,0.923,0.9249,0.9274,0.9309,0.9318,0.9354,0.9395,0.939,0.9439,0.9463,0.951,0.9527,0.9565,0.9548,0.9566,0.9571,0.9577,0.9582,0.9453,0.9571,0.9571,0.9571,0.9571,0.957,0,0.9252,0.9266,0.9303,0.934,0.9372,0.9354,0.9382,0.941,0.9453,0.9476,0.9509,0.9559,0.9599,0.9612,0.9651,0.9679,0.9673,0.9689,0.9688,0.9692,0.9595,0.9581,0.9693,0.9693,0.9693,0.9693,0.9693,0.9693,0.932,0.938,0.9382,0.9451,0.9464,0.9512,0.9529,0.9552,0.9571,0.9628,0.9661,0.9668,0.9688,0.9727,0.9763,0.9766,0.9781,0.9801,0.9801,0.9711,0.9699,0.9687,0.9673,0.9804,0.9804,0.9895,0.9896,0.9896]}]]